Regional Weather Roundup
Issued by NWS

Home | Current Version | Previous Version | Graphics & Text | Print | Product List | Glossary On
Versions: 1 2 3 4 5 6 7 8 9 10 11 12 13 14 15 16 17 18 19 20 21 22 23 24 25 26 27 28 29 30 31 32 33 34 35 36 37 38 39 40 41 42 43 44 45 46 47 48 49 50
446
ASUS43 KLOT 282209
RWRIL

ILLINOIS REGIONAL WEATHER ROUNDUP
NATIONAL WEATHER SERVICE CHICAGO/ROMEOVILLE IL
500 PM CDT THU JUL 28 2016

NOTE: "FAIR" INDICATES FEW OR NO CLOUDS BELOW 12,000 FEET WITH NO
SIGNIFICANT WEATHER AND/OR OBSTRUCTIONS TO VISIBILITY.

* THESE STATIONS ARE NOT UNDER NWS QUALITY CONTROL. THEY ALSO MAY NOT
  REPORT WEATHER SUCH AS PRECIPITATION OR FOG.

ILZ001-002-007-009-015-016-024-282300-
NORTHWEST ILLINOIS

CITY           SKY/WX    TMP DP  RH WIND       PRES   REMARKS
MOLINE         MOSUNNY   84  67  56 W13       29.88S HX  86
STERLING*      SUNNY     85  70  60 W8        29.87R HX  89
SAVANNA*       MOSUNNY   84  67  56 W5        29.86F HX  87
$$

ILZ003-004-008-010-011-017-018-282300-
NORTH CENTRAL ILLINOIS

CITY           SKY/WX    TMP DP  RH WIND       PRES   REMARKS
ROCKFORD       PTSUNNY   77  67  71 E7        29.91S
FREEPORT*      CLOUDY    72  70  95 N5        29.92R VSB 1/2
ROCHELLE*      PTSUNNY   75  69  81 E6        29.91R
DE KALB*       PTSUNNY   75  68  79 E12       29.91F
$$

ILZ005-006-012>014-019>023-282300-
NORTHEAST ILLINOIS

CITY           SKY/WX    TMP DP  RH WIND       PRES   REMARKS
CHICAGO-OHARE  TSTM      73  70  90 NW6       29.90F
CHICAGO-MIDWAY CLOUDY    75  71  87 SW6       29.91S THUNDER
AURORA         CLOUDY    76  68  76 E6        29.90F
LANSING*       CLOUDY    73  68  85 NW5       29.91R
JOLIET*        CLOUDY    74  71  88 E9        29.91S
WAUKEGAN       TSTM      70  66  87 NE6       29.89F
DUPAGE AIRPORT CLOUDY    73  70  90 E6        29.89F
KANKAKEE*      CLOUDY    83  70  63 CALM      29.89S HX  88
WHEELING       LGT RAIN  74  72  93 N5        29.91F
MORRIS*        CLOUDY    76  68  75 E3        29.89S
ROMEOVILLE*    RAIN      70  66  87 N7        29.91F
NORTHERLY ISL    N/A     75  70  84 S1          N/A
$$

LMZ740>746-282300-
SOUTHERN LAKE MICHIGAN

STATION/POSITION SKY/WX   TEMP    WIND        PRES    VSBY  WAVE
                          AIR SEA DIR/SP/G                  HT/PER
                          (F)     (DEG/KT/KT) (MB)    (MI)  (FT/S)
SOUTHERN BUOY              75 77   10/ 12/ 14 1012.3R         2/ 6
WILMETTE HARBOR            74 73   10/  8/ 10   N/A           1/ 4
HARRISON CRIB              76     310/ 10/ 11   N/A
BURNHAM HARBOR             75     130/  2/  3   N/A
CALUMET HARBOR             72     250/  3/  5 1012.3R
BURNS HARBOR                                  1012.9R
MICHIGAN CITY              76     360/  9/ 10   N/A
MICHIGAN CITY 6N           77 78  360/  8/ 10   N/A           1
ST. JOSEPH                 77 78   20/  8/ 10 1011.4R         1
$$

ILZ025>027-034>036-040-047-049-050-058-095>099-282300-
WEST-CENTRAL ILLINOIS

CITY           SKY/WX    TMP DP  RH WIND       PRES   REMARKS
QUINCY         PTSUNNY   83  73  72 NW9       29.89F HX  89
GALESBURG*     SUNNY     81  68  64 NW7       29.90R HX  84
MACOMB*        MOSUNNY   81  71  70 N10G17    29.91S HX  85
JACKSONVILLE*  SUNNY     85  71  63 NW9       29.88R HX  90
PITTSFIELD*    MOSUNNY   84  70  63 NW8       29.91R HX  88
$$

ILZ028>032-037-038-041>044-048-051>054-059>061-282300-
CENTRAL ILLINOIS

CITY           SKY/WX    TMP DP  RH WIND       PRES   REMARKS
PONTIAC        CLOUDY    81  71  73 CALM      29.90S HX  84
BLOOMINGTON    CLOUDY    75  68  78 SE5       29.90F
DECATUR        PTSUNNY   83  70  64 N7        29.88R HX  87
PEORIA         PTSUNNY   84  71  65 N8        29.87S HX  89
LACON*         SUNNY     84  70  63 NW7       29.86S HX  88
LINCOLN*       SUNNY     83  73  73 CALM      29.87F HX  88
SPRINGFIELD    SUNNY     87  73  62 N3        29.87R HX  94
TAYLORVILLE    CLOUDY    81  72  75 MISG      29.88S HX  85
$$

ILZ033-039-045-046-055>057-062-063-282300-
EAST-CENTRAL ILLINOIS

CITY           SKY/WX    TMP DP  RH WIND       PRES   REMARKS
CHAMPAIGN      CLOUDY    80  72  76 W3        29.89R HX  84
MATTOON        CLOUDY    82  70  66 CALM      29.87R HX  86
PARIS*         MOSUNNY   84  75  73 CALM      29.88R HX  92
$$

ILZ079-100>102-282300-
SOUTHWEST ILLINOIS

CITY           SKY/WX    TMP DP  RH WIND       PRES   REMARKS
ALTON          MOSUNNY   86  72  62 NW9       29.87R HX  92
BELLEVILLE     MOSUNNY   89  73  58 VRB6      29.85R HX  96
CAHOKIA*       PTSUNNY   88  70  55 N9        29.85R HX  93
SPARTA*        PTSUNNY   88  71  56 NW6       29.87R HX  94
$$

ILZ064>066-069>071-074>076-080>082-084>086-088>090-092>094-282300-
SOUTH-CENTRAL ILLINOIS

CITY           SKY/WX    TMP DP  RH WIND       PRES   REMARKS
CARBONDALE     LGT RAIN  75  67  76 SE8       29.88R
CAIRO*         CLOUDY    82  78  87 W5        29.86S HX  91
EFFINGHAM*     PTSUNNY   82  74  76 SE3       29.89R HX  88
MARION         PTSUNNY   75  70  83 S14       29.90R
MT. VERNON     CLOUDY    82  72  69 MISG      29.85F HX  87
CENTRALIA*     CLOUDY    84  76  76 S7        29.85S HX  93
SALEM*         MOSUNNY   85  73  67 S5        29.87R HX  92
METROPOLIS*    MOSUNNY   86  76  72 SW5       29.88R HX  96
$$

ILZ067-068-072-073-078-083-087-091-282300-
SOUTHEAST ILLINOIS

CITY           SKY/WX    TMP DP  RH WIND       PRES   REMARKS
LAWRENCEVILLE  PTSUNNY   84  75  74 SW5       29.86R THUNDER HX  92
FLORA*         CLOUDY    79  71  78 W9        29.87R HX  82
FAIRFIELD*     CLOUDY    85  78  79 SW5       29.84S HX  96
HARRISBURG*    RAIN      73  69  87 W10G22    29.88R
ROBINSON*      CLOUDY    82  76  79 N3        29.87R HX  90
CARMI*         CLOUDY    84  78  80 CALM      29.86R HX  95
$$

ABBREVIATIONS USED IN REMARKS
   TC - TEMPERATURE IN CELSIUS
  WCI - WIND CHILL INDEX
   HX - HEAT INDEX
  VSB - VISIBILITY
$$





USA.gov is the U.S. government's official web portal to all federal, state and local government web resources and services.